Location: Cedar Brake
(32.2526°N, 97.8459°W)
Time: 20:54:06
(UTC+00:00)

Cosmos 1939 Rocket - Pass Details

Date: 22 April 2026
Orbit: 487 x 521 km, 97.5° (Epoch: 21 May)

Event Time Altitude Azimuth Distance (km) Brightness Sun altitude
Rises 11:07:34 0° 10° (N) 2,571 6.7 -10.2°
Reaches altitude 10° 11:09:38 10° 10° (N) 1,690 5.7 -9.8°
Maximum altitude 11:13:16 83° 282° (WNW) 504 2.5 -9.1°
Drops below altitude 10° 11:16:55 10° 195° (SSW) 1,696 5.0 -8.3°
Sets 11:18:59 0° 194° (SSW) 2,582 5.9 -7.9°
